Lexington Weather

Lexington, Massachusetts, USA

39°F
3/30/2020 8:25am 
  • Lexington Conditions: Mist, Overcast
  • Temperature: 39.4°F / 4.1°C 
  • Dew Point: 38.7°F 
  • Relative Humidity: 97
  • Wind: Wind from NE NE 3 mph, 10-min avg: 3 mph, gust: 7 mph
  • Barometer: 29.96 in Steady
  • Visibility: 2 miles
  • Rain Today: 0.02 in
  •   

Regional Weather Roundup
for Boston / Norton, MA

        
000
ASUS41 KBOX 280304
RWRBOX

REGIONAL WEATHER ROUNDUP
NATIONAL WEATHER SERVICE BOSTON/NORTON MA
1100 PM EDT FRI MAR 27 2020

NOTE:  "FAIR" INDICATES FEW OR NO CLOUDS BELOW 12,000 FEET WITH NO 
SIGNIFICANT WEATHER AND/OR OBSTRUCTIONS TO VISIBILITY.

MAZALL-280400-
EASTERN MASSACHUSETTS
  
CITY           SKY/WX    TMP DP  RH WIND       PRES   REMARKS
BOSTON         FAIR      48  19  31 NW9       30.05R                  
BEVERLY        FAIR      46  20  35 N6        30.04R                  
LAWRENCE       FAIR      45  20  36 NE5       30.06R                  
BEDFORD        FAIR      45  21  38 NW5       30.04R                  
BLUE HILL        N/A     47  18  31 N10       30.02R                  
NORWOOD        FAIR      37  24  59 NW3       30.05R                  
MARSHFIELD     FAIR      36  32  87 SW3       30.04R                  
PLYMOUTH       FAIR      35  29  78 CALM      30.04R                  
TAUNTON        FAIR      33  26  75 CALM      30.03R                  
NEW BEDFORD    FAIR      35  31  85 CALM      30.03R                  
$$

MAZALL-280400-
CAPE COD AND THE ISLANDS
  
CITY           SKY/WX    TMP DP  RH WIND       PRES   REMARKS
FALMOUTH       CLEAR     34  27  75 CALM      30.03R                  
HYANNIS        FAIR      36  27  69 CALM      30.03R                  
CHATHAM        FAIR      38  29  70 CALM      30.05R                  
PROVINCETOWN   FAIR      42  32  67 N9        30.04R                  
NANTUCKET      FAIR      38  30  73 E5        30.04R                  
MARTHAS VNYRD  FAIR      31  27  85 CALM      30.02R                  
$$
 
MAZALL-280400-
CENTRAL AND WESTERN MASSACHUSETTS
  
CITY           SKY/WX    TMP DP  RH WIND       PRES   REMARKS
WORCESTER      FAIR      46  17  31 N6        30.04R                  
FITCHBURG      FAIR      40  24  53 CALM      30.05R                  
ORANGE         FAIR      35  27  72 CALM      30.05R                  
SPRINGFIELD    CLEAR     39  24  54 NE6       30.04R                  
WESTFIELD      FAIR      45  27  49 N3        30.04R                  
NORTH ADAMS    FAIR      35  28  75 CALM      30.06R                  
PITTSFIELD     FAIR      42  27  55 W7        30.04R                  
$$
 
RIZALL-280400-
RHODE ISLAND
  
CITY           SKY/WX    TMP DP  RH WIND       PRES   REMARKS
PROVIDENCE     FAIR      49  17  28 N8        30.03R                  
NEWPORT        FAIR      48  20  32 E7        30.02R                  
BLOCK ISLAND   FAIR      46  33  60 N3        30.03R                  
SMITHFIELD     FAIR      44  18  35 N6        30.04R                  
WESTERLY       FAIR      45  30  55 CALM      30.04R                  
$$
 
CTZALL-280400-
CONNECTICUT
  
CITY           SKY/WX    TMP DP  RH WIND       PRES   REMARKS
BRADLEY INTL   FAIR      50  26  39 N8        30.04R                  
HARTFORD       FAIR      45  28  51 NE5       30.05R                  
BRIDGEPORT     FAIR      52  23  32 N3        30.03R                  
DANBURY        FAIR      38  29  70 SW3       30.06R                  
GROTON         FAIR      45  27  49 N5        30.03R                  
NEW HAVEN      FAIR      44  28  53 CALM      30.03R                  
CHESTER        FAIR      50  27  40 N9        30.03R                  
MERIDEN        FAIR      47  28  47 CALM      30.04R                  
WILLIMANTIC    FAIR      39  28  64 NE3       30.04R                  
OXFORD         FAIR      45  25  45 N5        30.04R                  
$$

MEZ002-015-021-024-NHZ003-005-008-011-012-014-VTZ005-008-280400-
NORTHERN NEW ENGLAND
  
CITY           SKY/WX    TMP DP  RH WIND       PRES   REMARKS
PORTLAND ME    FAIR      42  21  43 W3        30.03R                  
BANGOR ME      FAIR      39  22  50 NW12      29.96R WCI  32          
CONCORD NH     FAIR      42  17  36 N5        30.04R                  
MANCHESTER NH  FAIR      47  17  30 NW6       30.03R                  
NASHUA NH      FAIR      42  22  44 W3        30.05R                  
PORTSMOUTH NH  CLEAR     45  15  30 W12       30.02R                  
JAFFREY NH     FAIR      39  25  57 CALM      30.02S                  
KEENE NH       FAIR      37  25  61 E3        30.04R                  
BURLINGTON VT  FAIR      35  21  56 CALM      30.07R                  
MT. WASHINGTON FOG       14  14 100 NW60        N/A  VSB 0   WCI -13  
$$

NYZ052-076-280400-
EASTERN NEW YORK
  
CITY           SKY/WX    TMP DP  RH WIND       PRES   REMARKS
ALBANY         FAIR      45  27  49 NW6       30.09R                  
NEW YORK CITY  FAIR      51  36  56 NE6       30.03R                  
$$
 
ANZALL-280400-
MARINE OBSERVATIONS
  
STATION/POSITION TIME  TEMP    WIND        PRES    VSBY  WAVE
                       AIR SEA DIR/SP/G                  HT/PER
                 (UTC) (F)     (DEG/KT/KT) (MB)    (MI)  (FT/S)
BOSTON BUOY      0250   47 42   10/ 14/ 14 1016.4R         4/11
BUZZARDS BAY     0200          100/ 15/ 16 1016.8R
NANTUCKET SOUND  0240                        N/A           1
MASS BAY-STELLWA 0204   45 41   30/ 10/ 12 1014.5R  1 7/8  5/11
ISLE OF SHOALS   0200   49     300/ 16/ 17 1015.7R
S OF BLOCK IS    0230      44                N/A           3/11
$$

......................KEY.........................
  SKY/WX - SKY CONDITION/PRESENT WEATHER
  TMP    - TEMPERATURE IN FAHRENHEIT
  DWPT   - DEWPOINT IN FAHRENHEIT
  RH     - RELATIVE HUMIDITY IN PERCENT
  WIND   - DIRECTION AND SPEED IN MPH
  PRES   - MEAN SEA LEVEL PRESSURE IN INCHES OF HG
  WCI    - WIND CHILL INDEX
  VSB    - VISIBILITY IN MILES
  HX     - HEAT INDEX
  TC     - TEMPERATURE IN CELSIUS
  VRB    - VARIABLE WIND DIRECTION
  N/A    - NOT AVAILABLE
  
      

Other recent Regional Weather Roundups

Mon Mar 30, 8:04am

Mon Mar 30, 7:04am

Mon Mar 30, 6:04am

Mon Mar 30, 5:04am

Mon Mar 30, 4:04am

Mon Mar 30, 3:05am

Mon Mar 30, 2:04am

Mon Mar 30, 1:04am

Mon Mar 30, 12:04am

Sun Mar 29, 11:04pm

Sun Mar 29, 10:05pm

Sun Mar 29, 9:04pm

Sun Mar 29, 8:04pm

Sun Mar 29, 7:04pm

Sun Mar 29, 6:04pm

Sun Mar 29, 5:05pm

Sun Mar 29, 4:04pm

Sun Mar 29, 3:04pm

Sun Mar 29, 2:04pm

Sun Mar 29, 1:05pm

Sun Mar 29, 12:04pm

Sun Mar 29, 11:04am

Sun Mar 29, 10:04am

Sun Mar 29, 9:04am

Sun Mar 29, 8:04am

Sun Mar 29, 7:04am

Sun Mar 29, 6:04am

Sun Mar 29, 5:04am

Sun Mar 29, 4:04am

Sun Mar 29, 3:04am

Sun Mar 29, 2:04am

Sun Mar 29, 1:04am

Sun Mar 29, 12:04am

Sat Mar 28, 11:05pm

Sat Mar 28, 10:04pm

Sat Mar 28, 9:04pm

Sat Mar 28, 8:04pm

Sat Mar 28, 7:04pm

Sat Mar 28, 6:04pm

Sat Mar 28, 5:05pm

Sat Mar 28, 4:04pm

Sat Mar 28, 3:04pm

Sat Mar 28, 2:04pm

Sat Mar 28, 1:05pm

Sat Mar 28, 12:04pm

Sat Mar 28, 11:04am

Sat Mar 28, 10:04am

Sat Mar 28, 9:04am

Sat Mar 28, 8:04am

Sat Mar 28, 7:04am

Sat Mar 28, 6:04am

Sat Mar 28, 5:04am

Sat Mar 28, 4:04am

Sat Mar 28, 3:04am

Sat Mar 28, 2:04am

Sat Mar 28, 1:04am

Sat Mar 28, 12:04am

Fri Mar 27, 10:04pm

Fri Mar 27, 9:04pm

Fri Mar 27, 8:04pm

Fri Mar 27, 7:05pm

Fri Mar 27, 6:04pm

Fri Mar 27, 5:05pm

Fri Mar 27, 4:05pm

Fri Mar 27, 3:04pm

Fri Mar 27, 2:05pm

Fri Mar 27, 1:04pm

Fri Mar 27, 12:04pm

Fri Mar 27, 11:04am

Fri Mar 27, 10:04am

Fri Mar 27, 9:04am

Meta data:

ID: 066846a3-8fba-489e-ab61-cce578788c6a
Link: https://api.weather.gov/products/066846a3-8fba-489e-ab61-cce578788c6a